Lid_Strength_Index
4 4 4 3 3 3 3 2 1 2 3 4 5 6 5 7 7 7 7 8 10 10 10 11 11 11 11 12 12 12 13 13 14 14 13 12 11 10 9 8 7 8 7
3 3 3 3 3 4 2 2 2 4 4 5 5 5 6 7 7 8 9 10 10 11 11 11 11 10 12 12 13 13 13 13 14 15 13 11 11 10 9 9 8 7 7
2 2 3 3 3 3 2 2 3 3 4 4 4 5 7 8 9 9 11 10 11 11 11 11 11 12 12 13 13 13 14 13 14 13 12 11 11 11 10 8 9 9 8
2 3 2 3 3 3 4 3 4 3 4 5 7 7 8 9 9 10 11 11 11 11 11 11 12 12 12 13 13 13 14 14 13 12 12 12 12 10 8 8 9 11 11
2 3 2 2 2 2 3 3 4 4 6 7 8 8 9 9 10 11 11 11 12 12 11 10 11 10 9 10 13 14 12 13 13 13 13 13 10 10 10 8 9 12 12
3 3 2 3 3 3 3 4 4 5 6 6 7 9 10 10 11 10 11 13 12 12 13 12 11 9 9 9 8 9 11 12 13 13 14 14 13 10 8 10 9 13 14
3 3 2 4 5 5 5 5 7 7 7 8 9 9 10 11 10 11 11 12 13 13 13 12 11 10 10 10 8 8 7 7 9 13 13 13 12 9 9 10 10 10 13
3 3 4 4 6 6 6 6 7 7 8 9 9 10 10 11 11 11 11 12 13 13 13 12 12 10 10 10 10 10 10 10 10 9 11 11 11 10 10 8 9 11 12
4 3 4 6 6 7 8 8 8 8 9 10 10 11 12 12 12 12 12 12 13 13 12 12 10 10 9 9 10 9 9 8 6 6 7 7 7 7 7 9 10 13 14
3 4 4 5 6 8 9 9 9 9 11 11 12 12 11 12 12 12 12 12 13 12 10 10 9 10 10 10 10 9 9 9 8 7 8 7 7 7 6 9 10 13 14
3 4 5 6 7 8 9 9 10 10 11 12 12 11 12 12 13 12 12 12 11 10 10 10 10 10 10 10 9 9 9 8 6 6 7 8 7 8 8 9 10 12 11
4 5 7 8 7 8 10 9 10 10 12 12 12 12 12 12 12 12 12 11 9 10 11 11 10 10 11 10 9 9 8 6 6 7 8 8 9 9 9 9 8 8 10
6 7 9 8 8 9 10 10 10 10 11 11 12 13 13 10 10 10 10 10 9 10 9 9 10 10 9 8 8 7 7 6 8 8 9 9 10 10 9 9 9 9 10
8 10 9 10 10 9 9 9 10 10 11 12 12 11 10 9 9 9 9 9 9 9 8 8 8 8 7 6 6 6 6 6 7 9 10 10 10 9 8 9 10 10 11
10 10 10 10 10 10 10 11 12 11 11 11 10 10 10 10 10 10 10 11 10 9 8 7 7 6 6 6 6 6 6 7 8 9 9 8 9 9 9 9 9 9 10
10 10 10 10 10 11 12 14 13 12 10 11 11 10 11 11 10 10 11 11 10 9 8 8 9 8 8 7 7 7 7 7 9 9 10 10 9 9 9 8 8 9 9
10 10 10 10 11 12 12 13 14 11 10 10 10 10 10 11 11 11 11 11 11 9 8 8 9 8 9 9 9 9 10 10 9 9 9 9 9 9 9 9 8 8 9
9 9 10 11 11 12 11 12 10 9 10 10 11 11 11 11 11 11 11 10 11 10 10 9 9 9 10 10 10 10 10 9 9 9 9 9 9 9 9 9 8 8 9
10 10 11 11 11 12 11 11 10 10 11 11 10 11 11 12 12 12 11 12 12 12 10 11 11 11 11 10 10 10 11 10 9 8 8 8 9 9 9 8 8 10 9
10 10 11 12 12 11 11 11 10 10 11 11 12 12 12 12 13 13 13 13 13 13 11 11 11 11 11 11 10 10 10 10 10 9 8 8 8 8 8 8 8 9 9
11 12 12 12 11 11 10 10 11 12 12 13 14 14 14 13 14 14 14 14 14 13 12 12 12 12 12 11 11 10 10 11 11 10 9 9 8 8 8 8 8 9 9
12 12 12 11 11 11 11 11 11 12 12 13 14 14 14 14 14 14 15 15 14 14 13 13 13 13 13 12 12 11 11 10 10 10 9 9 8 8 8 9 9 9 8
12 12 11 11 11 11 11 11 12 12 13 13 13 14 14 14 14 15 14 15 15 14 14 14 14 13 13 12 12 12 11 11 11 9 9 9 9 9 9 9 9 10 9
11 10 11 11 11 11 12 12 12 13 13 13 14 14 14 14 15 15 15 15 14 15 14 14 14 13 13 12 12 11 11 11 10 8 7 7 8 9 9 10 10 10 10
10 11 11 11 11 12 12 12 12 12 13 13 14 14 14 14 15 15 15 15 15 14 14 14 14 13 13 12 11 11 11 10 10 10 7 7 7 7 9 9 10 10 10
10 11 11 11 11 11 12 12 12 13 13 13 14 15 15 15 15 15 16 15 15 15 15 15 14 13 13 12 12 11 11 11 10 10 7 7 8 8 8 8 9 10 11